Temp
8 7 7 7 7 7 6 6 3 5 4 4 4 4 4 5 4 4 4 4 4 4
6 6 6 6 6 5 4 3 3 2 3 3 2 3 2 3 3 3 3 3 3 3
5 3 4 4 4 3 3 2 1 2 0 1 1 1 2 1 1 2 2 2 2 2
2 2 1 1 1 2 1 1 1 0 0 1 -1 -1 -0 -0 0 1 1 1 1 1
-0 -0 0 -0 -0 -0 -0 -0 1 -1 -2 -2 -2 -2 -1 -1 -1 -1 -2 -1 -1 -1
-3 -2 -2 -2 -2 -1 -1 -2 -2 -2 -3 -2 -3 -3 -4 -4 -3 -3 -2 -2 -2 -2
-4 -4 -3 -3 -3 -3 -3 -3 -3 -3 -4 -5 -5 -4 -4 -4 -4 -3 -3 -4 -4 -4
-7 -6 -6 -5 -4 -3 -4 -4 -4 -5 -6 -6 -6 -5 -5 -5 -5 -5 -4 -4 -4 -4
-8 -7 -6 -5 -5 -5 -5 -5 -6 -6 -6 -6 -5 -5 -5 -5 -5 -5 -5 -5 -4 -4
-9 -8 -7 -7 -6 -6 -6 -6 -6 -7 -7 -7 -6 -6 -5 -5 -5 -5 -5 -5 -5 -6
-10 -9 -9 -9 -8 -8 -8 -8 -8 -8 -8 -8 -7 -7 -6 -6 -6 -6 -6 -6 -7 -7
-11 -10 -10 -9 -9 -9 -9 -9 -9 -9 -8 -8 -7 -7 -7 -7 -7 -7 -7 -7 -7 -7
-12 -11 -10 -10 -10 -9 -9 -9 -9 -8 -8 -8 -8 -8 -7 -8 -7 -7 -7 -7 -7 -8
-13 -12 -11 -11 -10 -10 -10 -10 -9 -9 -9 -9 -8 -8 -8 -8 -8 -8 -8 -8 -8 -8
Height
1424 1430 1434 1439 1444 1451 1455 1460 1465 1469 1477 1482 1487 1492 1497 1499 1505 1509 1514 1517 1521 1523
1419 1423 1427 1434 1440 1445 1451 1456 1462 1467 1471 1477 1483 1487 1493 1497 1502 1506 1508 1513 1517 1520
1412 1419 1424 1429 1435 1441 1447 1451 1457 1461 1468 1471 1478 1483 1486 1492 1498 1502 1504 1509 1512 1515
1410 1413 1421 1427 1434 1436 1443 1449 1452 1458 1465 1467 1475 1478 1483 1488 1493 1498 1501 1503 1507 1511
1408 1416 1421 1428 1430 1437 1440 1446 1449 1455 1461 1463 1469 1475 1480 1484 1488 1492 1496 1498 1502 1508
1416 1417 1422 1426 1433 1436 1438 1445 1448 1453 1457 1461 1467 1471 1477 1483 1485 1488 1493 1494 1498 1503
1421 1423 1425 1428 1432 1433 1437 1442 1446 1451 1456 1461 1466 1471 1475 1479 1484 1486 1488 1493 1496 1500
1426 1427 1428 1429 1430 1433 1437 1441 1446 1450 1455 1461 1466 1471 1475 1478 1481 1484 1488 1491 1494 1496
1431 1431 1429 1429 1430 1433 1437 1442 1447 1452 1457 1462 1466 1470 1474 1478 1480 1484 1487 1490 1492 1494
1434 1433 1433 1431 1432 1434 1438 1443 1447 1452 1457 1462 1466 1470 1473 1476 1480 1483 1485 1488 1490 1493
1439 1438 1437 1435 1435 1438 1441 1445 1449 1454 1459 1463 1466 1469 1473 1476 1478 1481 1483 1485 1489 1492
1446 1444 1442 1441 1442 1444 1446 1449 1452 1456 1460 1464 1466 1469 1471 1473 1476 1479 1481 1484 1487 1490
1452 1448 1444 1445 1446 1446 1448 1452 1454 1457 1460 1463 1465 1468 1470 1472 1475 1478 1480 1483 1486 1489
1451 1447 1446 1447 1448 1449 1451 1453 1456 1458 1459 1462 1464 1466 1468 1470 1473 1476 1479 1482 1485 1488
Wind_Speed
36 34 31 30 29 31 32 33 32 31 32 33 31 27 26 26 25 24 23 21 21 19
29 28 30 30 27 26 26 24 25 27 30 33 32 31 27 27 28 27 25 24 21 18
22 22 23 25 25 26 24 24 24 24 28 27 30 31 30 27 25 24 23 23 21 19
27 24 24 23 23 23 22 22 23 25 27 28 29 25 26 27 27 24 22 21 19 17
23 23 22 20 20 19 18 18 21 21 23 26 22 25 29 32 31 30 29 26 25 25
17 17 17 16 15 14 14 16 17 19 18 20 27 28 27 23 26 25 24 20 18 15
14 15 15 15 15 13 13 14 16 19 21 21 18 18 19 18 16 15 11 11 13 13
11 11 12 13 12 13 13 14 14 16 18 19 20 21 20 16 13 10 12 9 11 11
11 11 12 13 14 14 15 16 16 18 18 20 20 19 18 19 15 12 8 10 12 13
16 14 12 13 13 14 15 16 18 20 19 19 18 18 18 18 15 11 10 12 12 12
15 14 14 14 15 15 15 16 17 18 18 18 17 14 14 13 12 11 11 11 10 10
14 13 13 13 13 14 14 15 16 17 16 15 15 14 11 12 12 11 10 10 11 11
9 9 11 11 11 11 10 10 11 12 14 14 14 20 18 13 11 13 10 9 10 11
9 8 7 6 6 7 7 8 9 10 12 12 14 15 17 11 11 11 10 9 9 9
Wind_Direction
212 213 212 215 215 219 218 219 206 209 207 201 200 202 203 203 210 209 212 218 224 227
207 208 208 208 212 210 212 211 210 210 210 206 208 205 204 203 211 214 214 219 224 233
190 187 192 191 191 193 195 196 199 205 206 208 207 205 206 204 209 212 211 216 220 225
159 159 163 167 174 176 182 191 192 198 204 201 200 196 198 199 200 201 203 203 203 209
145 158 161 166 166 174 179 188 193 194 197 193 199 203 207 208 209 214 216 220 226 232
133 137 144 150 161 169 176 188 188 192 194 191 195 190 185 190 198 207 224 227 229 228
126 139 146 152 157 154 163 181 187 188 184 185 192 192 196 201 214 215 211 212 210 215
102 119 130 139 148 157 160 163 172 177 173 177 182 185 194 201 199 187 186 197 203 208
96 112 121 131 140 148 154 156 161 167 173 174 178 182 185 189 187 185 221 220 208 203
75 85 101 115 129 138 148 157 161 161 163 165 169 174 179 183 195 228 222 205 201 198
75 83 88 99 107 116 125 133 140 146 154 161 159 172 189 204 213 197 184 181 182 186
68 82 95 106 116 124 134 140 150 156 163 170 174 165 169 174 174 172 177 187 196 204
54 73 87 95 109 120 136 158 168 177 186 192 186 184 186 189 196 187 173 174 185 194
35 53 71 85 103 120 135 148 158 169 172 179 183 184 189 187 188 183 188 198 199 197